User: anonymous   Login
Location: Unspecified
(0.0000°N, 0.0000°E)
Time: 09:18:51
(UTC+00:00)
Language:

FIREBIRD 4 - Orbit

View from above orbital plane
View from above orbital plane
View from above satellite
View from above satellite

Ground track
Ground track

The orbit data is extracted from the following two-line orbital elements,

1 40378U 15003C   19345.74417194  .00001408  00000-0  58646-4 0  9996
2 40378  99.1173   2.2750 0125048 223.3556 135.7784 15.19403097268657
Epoch (UTC): 11 December 2019 17:51:36
Eccentricity: 0.0125048
inclination: 99.1173°
perigee height: 421 km
apogee height: 594 km
right ascension of ascending node: 2.2750°
argument of perigee: 223.3556°
revolutions per day: 15.19403097
mean anomaly at epoch: 135.7784°
orbit number at epoch: 26865

The dashed part of the orbit path shows where the satellite is in the earth's shadow,  

DLR